| time (UTC) | temp C | wind direction | speed KPH | gust KPH | rain 1hr cm | rain 24hr cm | rain mn cm | humidity % | barometer mb |
| 20260508072650 | 5 | 130 | 0.0 | 0.0 | 0.00 | 0.00 | 0.00 | 78 | 1016.3 |
| 20260508065647 | 5 | 150 | 0.0 | 0.0 | 0.00 | 0.00 | 0.00 | 76 | 1016.7 |
| 20260508062644 | 8 | 18 | 1.6 | 1.6 | 0.00 | 0.00 | 0.00 | 63 | 1016.3 |
| 20260508055642 | 10 | 4 | 3.2 | 3.2 | 0.00 | 0.00 | 0.00 | 57 | 1016.3 |
| 20260508052642 | 10 | 359 | 3.2 | 3.2 | 0.00 | 0.00 | 0.00 | 55 | 1016.3 |
| 20260508045637 | 10 | 346 | 4.8 | 4.8 | 0.00 | 0.00 | 0.00 | 56 | 1016.0 |
| 20260508042636 | 11 | 342 | 6.4 | 6.4 | 0.00 | 0.00 | 0.00 | 54 | 1015.6 |
| 20260508035635 | 12 | 359 | 4.8 | 4.8 | 0.00 | 0.00 | 0.00 | 49 | 1015.6 |
| 20260508032630 | 12 | 341 | 6.4 | 6.4 | 0.00 | 0.00 | 0.00 | 47 | 1014.9 |
| 20260508025629 | 12 | 288 | 3.2 | 3.2 | 0.00 | 0.00 | 0.00 | 49 | 1014.5 |
| 20260508022626 | 11 | 216 | 0.0 | 0.0 | 0.00 | 0.00 | 0.00 | 53 | 1014.5 |
| 20260508015625 | 12 | 6 | 4.8 | 4.8 | 0.00 | 0.00 | 0.00 | 48 | 1013.9 |
| 20260508012622 | 12 | 354 | 3.2 | 3.2 | 0.00 | 0.00 | 0.00 | 47 | 1013.9 |
| 20260508005617 | 13 | 348 | 3.2 | 3.2 | 0.00 | 0.00 | 0.00 | 49 | 1013.2 |
| 20260508002615 | 13 | 315 | 0.0 | 0.0 | 0.00 | 0.00 | 0.00 | 49 | 1012.9 |
| 20260507235612 | 15 | 324 | 6.4 | 6.4 | 0.00 | 0.00 | 0.00 | 43 | 1012.5 |
| 20260507232612 | 15 | 355 | 6.4 | 8.0 | 0.00 | 0.00 | 0.00 | 42 | 1012.5 |
| 20260507225608 | 16 | 336 | 4.8 | 4.8 | 0.00 | 0.00 | 0.00 | 42 | 1012.1 |
| 20260507222605 | 17 | 24 | 4.8 | 4.8 | 0.00 | 0.00 | 0.00 | 37 | 1011.7 |
| 20260507215602 | 18 | 318 | 6.4 | 8.0 | 0.00 | 0.00 | 0.00 | 36 | 1011.4 |
| 20260507212559 | 18 | 338 | 3.2 | 3.2 | 0.00 | 0.00 | 0.00 | 34 | 1011.4 |
| 20260507205557 | 18 | 276 | 9.7 | 11.3 | 0.00 | 0.00 | 0.00 | 35 | 1011.4 |
| 20260507202555 | 18 | 332 | 4.8 | 4.8 | 0.00 | 0.00 | 0.00 | 33 | 1011.4 |
| 20260507195550 | 18 | 12 | 3.2 | 3.2 | 0.00 | 0.00 | 0.00 | 34 | 1011.7 |
| 20260507192547 | 19 | 293 | 6.4 | 6.4 | 0.00 | 0.00 | 0.00 | 36 | 1012.1 |
| 20260507185543 | 18 | 348 | 4.8 | 4.8 | 0.00 | 0.00 | 0.00 | 36 | 1012.1 |
| 20260507182542 | 17 | 351 | 4.8 | 4.8 | 0.00 | 0.00 | 0.00 | 39 | 1012.5 |
| 20260507175538 | 17 | 59 | 3.2 | 3.2 | 0.00 | 0.00 | 0.00 | 39 | 1012.9 |
| 20260507172538 | 17 | 234 | 3.2 | 3.2 | 0.00 | 0.00 | 0.00 | 39 | 1013.5 |
| 20260507165535 | 16 | 24 | 3.2 | 3.2 | 0.00 | 0.00 | 0.00 | 46 | 1013.9 |
| 20260507162532 | 16 | 31 | 3.2 | 3.2 | 0.00 | 0.00 | 0.00 | 41 | 1013.9 |
| 20260507155528 | 15 | 312 | 6.4 | 6.4 | 0.00 | 0.00 | 0.00 | 45 | 1014.9 |
| 20260507152525 | 15 | 29 | 4.8 | 4.8 | 0.00 | 0.00 | 0.00 | 47 | 1014.9 |
| 20260507145521 | 13 | 300 | 3.2 | 3.2 | 0.00 | 0.00 | 0.00 | 50 | 1015.2 |
| 20260507142520 | 12 | 198 | 3.2 | 3.2 | 0.00 | 0.00 | 0.00 | 58 | 1016.0 |
| 20260507135520 | 12 | 352 | 3.2 | 3.2 | 0.00 | 0.00 | 0.00 | 52 | 1016.7 |
| 20260507132517 | 11 | 264 | 3.2 | 3.2 | 0.00 | 0.00 | 0.00 | 56 | 1016.7 |
| 20260507125518 | 10 | 328 | 4.8 | 4.8 | 0.00 | 0.00 | 0.00 | 59 | 1016.7 |
| 20260507122515 | 10 | 108 | 0.0 | 0.0 | 0.00 | 0.00 | 0.00 | 63 | 1016.7 |
| 20260507115511 | 10 | 354 | 0.0 | 0.0 | 0.00 | 0.00 | 0.00 | 63 | 1016.7 |
| 20260507112509 | 9 | 174 | 0.0 | 0.0 | 0.00 | 0.00 | 0.00 | 64 | 1016.3 |
| 20260507105506 | 9 | 120 | 3.2 | 3.2 | 0.00 | 0.00 | 0.00 | 66 | 1016.0 |
| 20260507102504 | 8 | 72 | 0.0 | 0.0 | 0.00 | 0.00 | 0.00 | 71 | 1015.6 |
| 20260507095502 | 9 | 96 | 0.0 | 0.0 | 0.00 | 0.00 | 0.00 | 63 | 1015.6 |
| 20260507092502 | 9 | 72 | 0.0 | 0.0 | 0.00 | 0.00 | 0.00 | 65 | 1015.2 |
| 20260507085459 | 10 | 11 | 0.0 | 0.0 | 0.00 | 0.00 | 0.00 | 62 | 1014.9 |
| 20260507082456 | 10 | 30 | 3.2 | 3.2 | 0.00 | 0.00 | 0.00 | 59 | 1014.9 |
| 20260507075452 | 10 | 193 | 0.0 | 0.0 | 0.00 | 0.00 | 0.00 | 66 | 1014.9 |